Regional Weather Roundup
Issued by NWS Jackson, KY

Home | Current Version | Previous Version | Graphics & Text | Print | Product List | Glossary On
Versions: 1 2 3 4 5 6 7 8 9 10 11 12 13 14 15 16 17 18 19 20 21 22 23 24 25 26 27 28 29 30 31 32 33 34 35 36 37 38 39 40 41 42 43 44 45 46 47 48 49 50
000
ASUS43 KJKL 290710
RWRJKL

EAST KENTUCKY HOURLY WEATHER ROUNDUP
NATIONAL WEATHER SERVICE JACKSON KY
300 AM EDT FRI JUL 29 2016

NOTE: "FAIR" INDICATES FEW OR NO CLOUDS BELOW 12,000 FEET WITH
NO SIGNIFICANT WEATHER AND/OR OBSTRUCTIONS TO VISIBILITY.

* THESE REPORTS ARE NOT UNDER NWS QUALITY CONTROL AND MAY NOT
  REPORT WEATHER SUCH AS PRECIPITATION AND FOG.

KYZ079-080-083-085-087-088-110-112-115-119-120-290800
...EASTERN KENTUCKY...

CITY           SKY/WX    TMP DP  RH WIND       PRES   REMARKS
JACKSON        FOG       69  67  93 CALM      29.97S VSB 1/2
LONDON         FOG       70  68  93 S3        29.97F VSB 1/2
SOMERSET*      CLOUDY    68  68 100 CALM      29.97F FOG
MONTICELLO*    MOCLDY   N/A N/A N/A W12       29.98S
WILLIAMSBURG*  PTSUNNY   68  68 100 CALM      29.98S VSB 3/4
MIDDLESBORO*   CLOUDY    68  68 100 CALM      30.00R FOG
HARLAN APT*    CLOUDY    70  68  94 CALM      30.00S
PIKE CO APT*   CLOUDY    69  69 100 CALM      29.98S FOG
BIG SANDY APT* CLOUDY    70  70 100 CALM      29.97S
MOREHEAD APT*  CLOUDY    72  70  94 SW7       29.96R
ASHLAND*       CLOUDY    72  70  94 CALM      29.91S
$$

KYZ035-036-041-042-044-050-067-078-099-290800
...CENTRAL KENTUCKY...

CITY           SKY/WX    TMP DP  RH WIND       PRES   REMARKS
MT STERLING*   CLOUDY    70  70 100 SW5       29.95F FOG
FLEMING/MASON* CLEAR     69  69  99 CALM      29.94S FOG
DANVILLE*      PTCLDY    70  68  94 S5        29.95S
LEXINGTON        N/A     71  69  93 S5        29.93F
FRANKFORT      PTCLDY    72  69  90 SW5       29.91F
LOUISVILLE     CLOUDY    76  72  87 SW5       29.90S
LEBANON*         N/A     72  72 100 S6        29.93S
GLASGOW*       MOCLDY    73  73 100 CALM      29.93S
BOWLING GREEN  CLOUDY    73  70  90 S3        29.92S
$$

KYZ091>093-OHZ055-061-077-WVZ005-015-034-035-042-290800
...SOUTHERN OHIO/WEST VIRGINIA...

CITY           SKY/WX    TMP DP  RH WIND       PRES   REMARKS
COVINGTON      FOG       74  74 100 W6        29.91F VSB 1
COLUMBUS       PTCLDY    70  70 100 CALM      29.91S
DAYTON         PTCLDY    71  68  90 W6        29.92F
WILMINGTON     CLEAR     71  71 100 SW5       29.92F
HUNTINGTON     CLOUDY    71  70  96 SW3       29.93S
CHARLESTON     CLOUDY    71  69  93 CALM      29.93F FOG
PINEVILLE*     DRIZZLE   69  66  90 MISG      30.03S
BECKLEY        RAIN      67  65  93 W3        30.00R FOG
BLUEFIELD      CLOUDY    65  63  93 W3        30.03S
LOGAN CO APT*  FOG       70  70 100 CALM      29.97R VSB<1/4
$$

VAZ002-007-008-TNZ017-027-036-066-071-290800
...SOUTHWEST VIRGINIA/EAST TENNESSEE...

CITY           SKY/WX    TMP DP  RH WIND       PRES   REMARKS
WISE*          FOG       66  64  94 CALM      30.05S VSB 1/2
JONESVILLE*    CLOUDY    68  68 100 CALM      30.01S FOG
ABINGDON*      CLOUDY    70  70 100 W5        30.01S FOG
BRISTOL        MOCLDY    70  68  93 SW3       29.99S
MORRISTOWN*    CLOUDY    72  72 100 SW6       29.99R
SEVIERVILLE*   SUNNY     72  70  94 CALM      29.98S
KNOXVILLE      MOCLDY    73  71  93 SW8       29.98S
OAK RIDGE      PTCLDY    72  70  93 SW3       29.99F
CROSSVILLE     CLOUDY    71  70  96 W7        30.04S
NASHVILLE      CLOUDY    77  73  87 SW6       29.95F
$$

...KEY TO REMARKS...
VSB - VISIBILITY IN MILES
WCI - WIND CHILL INDEX
HX  - HEAT INDEX

$$



USA.gov is the U.S. government's official web portal to all federal, state and local government web resources and services.